星链-5299 (STARLINK-5299 )

导读 | 豆包AI

STARLINK-5299是美国SpaceX公司星链(Starlink)互联网星座的一颗卫星,于2023年1月19日发射升空。作为星链低地球轨道星座组网的组成部分,它主要为全球无传统网络基础设施覆盖的偏远地区,提供高速低延迟的宽带互联网接入服务,目前已在轨道稳定运行,为星座的全球网络覆盖提供支撑。

基本信息
目录编号:
55277
目录名称:
STARLINK-5299
国际标识:
2023-010J
轨道中心:
EARTH
卫星名称:
星链-5299
卫星全名:
星链-5299 (STARLINK-5299 )
卫星状态:
在轨 (已飞行1197 天)
发射日期:
2023-01-19 UTC
国别 :
美国 (US)
星等 :
--
轨道信息
数据来源 国际轨道数据 AOE轨道数据
星历时间 2026-04-30T05:13:55+0800
18小时前
查看轨道信息
2026-04-24T08:00:00+0800
6天前
查看轨道信息
半长轴 6950.181km 6950.191km
偏心率 0.0003121 0.0003165
轨道倾角 69.999° 69.997°
近地点辐角 267.541° 269.596°
升交点赤经 275.404° 290.240°
平近点角 92.539° 37.700°
近地点 569.874km 569.854km
远地点 574.214km 574.254km
周期 96.107分钟 96.107分钟
每日圈数 14.983341 14.983308
详细信息
固有亮度:
5
最大亮度:
2.5
卫星平台:
Starlink v1.5
覆盖范围:
全球
运营商:
太空探索技术公司
运营商所在国:
美国
制造商(研发单位):
太空探索技术公司
制造商所在国:
美国
使用方式:
暂无
卫星简介
星链(Starlink)计划是由太空探索技术公司(SpaceX)提出的一个巨型低轨卫星互联网星座项目,计划在2019年至2024年间在太空搭建由约1.2万颗卫星组成的“星链”网络,其中1584颗将部署在地球上空550千米处的近地轨道,并从2020年开始工作。该卫星仍在工作。
2D轨道图
3D轨道图
轨道高度分析图
轨道倾角分析图
轨道综合分析图
查看轨道综合分析图